K3GM Weather Reports


Display with metric or nautical units.
time (UTC)temp
F
wind
direction
speed
MPH
gust
MPH
rain 1hr
in
rain 24hr
in
rain mn
in
humidity
%
barometer
mb
20260906100043 65 0 0.0 0.0 0.00 0.00 0.00 86 1013.7
20260906094539 65 0 0.0 0.0 0.00 0.00 0.00 85 1013.6
20260906093058 66 0 0.0 0.0 0.00 0.00 0.00 85 1013.1
20260906091541 66 0 0.0 0.0 0.00 0.00 0.00 84 1013.0
20260906090043 66 0 0.0 0.0 0.00 0.00 0.00 84 1012.9
20260906084545 66 0 0.0 0.0 0.00 0.00 0.00 84 1012.7
20260906083044 66 0 0.0 0.0 0.00 0.00 0.00 84 1012.3
20260906081544 66 0 0.0 0.0 0.00 0.00 0.00 83 1012.5
20260906080043 66 0 0.0 0.0 0.00 0.00 0.00 83 1012.4
20260906074542 66 0 0.0 0.0 0.00 0.00 0.00 83 1012.2
20260906073038 66 0 0.0 0.0 0.00 0.00 0.00 83 1012.4
20260906071545 67 0 0.0 0.0 0.00 0.00 0.00 83 1012.5
20260906070044 67 0 0.0 0.0 0.00 0.00 0.00 82 1012.5
20260906064539 67 0 0.0 0.0 0.00 0.00 0.00 81 1012.4
20260906063040 67 0 0.0 0.0 0.00 0.00 0.00 81 1012.5
20260906061546 68 0 0.0 0.0 0.00 0.00 0.00 80 1012.8
20260906060044 68 0 0.0 0.0 0.00 0.00 0.00 79 1012.8
20260906054554 68 0 0.0 0.0 0.00 0.00 0.00 80 1012.9
20260906053044 68 0 0.0 0.0 0.00 0.00 0.00 80 1013.0
20260906051542 68 0 0.0 0.0 0.00 0.00 0.00 80 1012.8
20260906050059 68 0 0.0 0.0 0.00 0.00 0.00 80 1013.1
20260906044540 68 0 0.0 0.0 0.00 0.00 0.00 81 1013.2
20260906043039 68 0 0.0 0.0 0.00 0.00 0.00 80 1013.1
20260906041543 68 0 0.0 0.0 0.00 0.00 0.00 79 1013.3
20260906040044 67 0 0.0 0.0 0.00 0.00 0.00 82 1013.0
20260906034544 68 0 0.0 0.0 0.00 0.00 0.00 81 1013.2
20260906033053 68 0 0.0 0.0 0.00 0.00 0.00 80 1013.0
20260906031542 68 0 0.0 0.0 0.00 0.00 0.00 79 1012.9
20260906030042 69 0 0.0 0.0 0.00 0.00 0.00 78 1012.5
20260906024541 69 0 0.0 0.0 0.00 0.00 0.00 75 1012.6
20260906023040 70 0 0.0 0.0 0.00 0.00 0.00 74 1012.7
20260906021550 71 0 0.0 0.0 0.00 0.00 0.00 72 1012.7
20260906020051 71 0 0.0 0.0 0.00 0.00 0.00 71 1012.6
20260906014550 70 0 0.0 0.0 0.00 0.00 0.00 72 1012.4
20260906013046 71 0 0.0 0.0 0.00 0.00 0.00 71 1012.3
20260906011542 70 0 0.0 0.0 0.00 0.00 0.00 72 1012.1
20260906010040 71 0 0.0 0.0 0.00 0.00 0.00 71 1011.9
20260906004535 72 0 0.0 0.0 0.00 0.00 0.00 70 1011.9
20260906003042 72 0 0.0 0.0 0.00 0.00 0.00 70 1011.8
20260906001542 72 0 0.0 0.0 0.00 0.00 0.00 67 1011.6
20260906000041 73 0 0.0 0.0 0.00 0.00 0.00 67 1011.4
20260905234550 74 0 0.0 0.0 0.00 0.00 0.00 57 1011.3
20260905233044 75 0 0.0 0.0 0.00 0.00 0.00 54 1011.1
20260905231546 76 0 0.0 0.0 0.00 0.00 0.00 60 1011.1
20260905230131 77 0 0.0 0.0 0.00 0.00 0.00 59 1011.2
20260905224544 77 0 0.0 0.0 0.00 0.00 0.00 57 1011.1
20260905223043 77 0 0.0 0.0 0.00 0.00 0.00 55 1011.0
20260905221539 78 0 0.0 0.0 0.00 0.00 0.00 55 1011.0
20260905220040 78 0 0.0 0.0 0.00 0.00 0.00 50 1010.8
20260905214542 78 0 0.0 0.0 0.00 0.00 0.00 56 1010.8
20260905213039 79 0 0.0 0.0 0.00 0.00 0.00 54 1010.8
20260905211546 79 0 0.0 0.0 0.00 0.00 0.00 46 1010.7
20260905210042 79 0 0.0 0.0 0.00 0.00 0.00 56 1010.7
20260905204542 79 0 0.0 0.0 0.00 0.00 0.00 48 1010.5
20260905203049 79 0 0.0 0.0 0.00 0.00 0.00 56 1010.6
20260905201543 79 0 0.0 0.0 0.00 0.00 0.00 48 1010.7
20260905200044 80 0 0.0 0.0 0.00 0.00 0.00 53 1010.8
20260905194539 79 0 0.0 0.0 0.00 0.00 0.00 57 1010.9
20260905193102 79 0 0.0 0.0 0.00 0.00 0.00 50 1011.0
20260905191542 79 0 0.0 0.0 0.00 0.00 0.00 48 1011.0
20260905190043 79 0 0.0 0.0 0.00 0.00 0.00 49 1011.1
20260905184545 79 0 0.0 0.0 0.00 0.00 0.00 47 1011.1
20260905183046 79 0 0.0 0.0 0.00 0.00 0.00 48 1011.1
20260905181544 79 0 0.0 0.0 0.00 0.00 0.00 52 1011.3
20260905180041 80 0 0.0 0.0 0.00 0.00 0.00 46 1011.5
20260905174541 80 0 0.0 0.0 0.00 0.00 0.00 43 1011.4
20260905173044 79 0 0.0 0.0 0.00 0.00 0.00 46 1011.6
20260905171542 79 0 0.0 0.0 0.00 0.00 0.00 45 1011.5
20260905170041 79 0 0.0 0.0 0.00 0.00 0.00 45 1011.8
20260905164540 79 0 0.0 0.0 0.00 0.00 0.00 46 1011.7
20260905163036 80 0 0.0 0.0 0.00 0.00 0.00 46 1012.0
20260905161543 79 0 0.0 0.0 0.00 0.00 0.00 47 1012.0
20260905160042 79 0 0.0 0.0 0.00 0.00 0.00 49 1012.0
20260905154549 79 0 0.0 0.0 0.00 0.00 0.00 55 1012.0
20260905153043 79 0 0.0 0.0 0.00 0.00 0.00 51 1012.0
20260905151543 78 0 0.0 0.0 0.00 0.00 0.00 52 1012.1
20260905150040 77 0 0.0 0.0 0.00 0.00 0.00 55 1012.0
20260905144544 77 0 0.0 0.0 0.00 0.00 0.00 57 1011.9
20260905143043 76 0 0.0 0.0 0.00 0.00 0.00 59 1011.8
20260905141542 76 0 0.0 0.0 0.00 0.00 0.00 66 1012.0
20260905140041 75 0 0.0 0.0 0.00 0.00 0.00 70 1011.6
20260905134545 74 0 0.0 0.0 0.00 0.00 0.00 71 1011.7
20260905133043 75 0 0.0 0.0 0.00 0.00 0.00 63 1011.5
20260905131542 73 0 0.0 0.0 0.00 0.00 0.00 66 1011.5
20260905130043 72 0 0.0 0.0 0.00 0.00 0.00 73 1011.6
20260905124543 72 0 0.0 0.0 0.00 0.00 0.00 72 1011.8
20260905123039 72 0 0.0 0.0 0.00 0.00 0.00 72 1012.0
20260905121541 72 0 0.0 0.0 0.00 0.00 0.00 72 1012.0
20260905120042 72 0 0.0 0.0 0.00 0.00 0.00 71 1012.0
20260905114540 72 0 0.0 0.0 0.00 0.00 0.00 71 1011.7
20260905113041 72 0 0.0 0.0 0.00 0.00 0.00 72 1011.6
20260905111536 73 0 0.0 0.0 0.00 0.00 0.00 72 1011.6
20260905110042 73 0 0.0 0.0 0.00 0.00 0.00 71 1011.5
20260905104542 73 0 0.0 0.0 0.00 0.00 0.00 71 1011.2
20260905103044 73 0 0.0 0.0 0.00 0.00 0.00 73 1011.1
20260905101540 73 0 0.0 0.0 0.00 0.00 0.00 65 1011.1